Quillayute, WA

2:14 AM PDT on May 25, 2017 (GMT -0700)
Quillayute

Weather History for KUIL - April, 2012

Change the Weather History Date:

Thursday, April 12, 2012

  Actual Average Record
Temperature  
Mean Temperature 46 °F 46 °F  
Max Temperature 55 °F 54 °F 76 °F (1980)
Min Temperature 36 °F 38 °F 29 °F (1971)
Degree Days  
Heating Degree Days 19 19  
Month to date heating degree days 231  
Since 1 July heating degree days 4724  
Cooling Degree Days 0 0  
Month to date cooling degree days 0  
Year to date cooling degree days 0  
Moisture  
Dew Point 42 °F    
Average Humidity 84    
Maximum Humidity 97    
Minimum Humidity 64    
Precipitation  
Precipitation 0.15 in 0.27 in 2.13 in (1982)
Month to date precipitation 3.46  
Year to date precipitation 39.25  
Sea Level Pressure  
Sea Level Pressure 29.74 in    
Wind  
Wind Speed 6 mph (SE)    
Max Wind Speed 20 mph    
Max Gust Speed 29 mph    
Visibility 9 miles    
Events Rain    
T = Trace of Precipitation, MM = Missing Value Source: NWS Daily Summary

Daily Weather History Graph

Daily Weather History Graph

Search for Another Location

Airport or City:

Trip Planner

Search our weather history database for the weather conditions in past years. The results will help you decide how hot, cold, wet, or windy it might be!

Date:

Astronomy

Apr. 12, 2012 Rise Set
Actual Time 6:33 AM PDT 8:05 PM PDT
Civil Twilight 6:01 AM PDT 8:37 PM PDT
Nautical Twilight 5:21 AM PDT 9:17 PM PDT
Astronomical Twilight 4:39 AM PDT 9:59 PM PDT
Moon 2:11 AM PDT (4/12) 11:20 AM PDT (4/12)
Length of Visible Light 14h 36m
Length of Day
13h 31m
Waning Gibbous, 57% of the Moon is Illuminated
Apr 12
Waning Gibbous
Apr 13
Last Quarter
Apr 21
New
Apr 29
First Quarter
May 5
Full

Hourly Weather History & Observations

Time (PDT) Temp. Windchill Dew Point Humidity Pressure Visibility Wind Dir Wind Speed Gust Speed Precip Events Conditions
12:53 AM 44.1 °F 41.5 °F 41.0 °F 89% 29.69 in 10.0 mi ENE 4.6 mph - N/A   Clear
1:53 AM 45.0 °F 42.6 °F 43.0 °F 93% 29.70 in 10.0 mi East 4.6 mph - N/A   Mostly Cloudy
2:05 AM 44.6 °F 43.1 °F 42.8 °F 93% 29.69 in 10.0 mi East 3.5 mph - N/A   Mostly Cloudy
2:53 AM 46.0 °F 43.1 °F 43.0 °F 89% 29.69 in 10.0 mi ENE 5.8 mph - N/A   Overcast
3:53 AM 45.0 °F 41.2 °F 43.0 °F 93% 29.69 in 10.0 mi ENE 6.9 mph - N/A   Overcast
4:53 AM 45.0 °F 41.2 °F 43.0 °F 93% 29.69 in 9.0 mi East 6.9 mph - N/A   Overcast
5:53 AM 45.0 °F 42.6 °F 43.0 °F 93% 29.68 in 9.0 mi ENE 4.6 mph - 0.01 in Rain Light Rain
6:53 AM 44.1 °F 40.8 °F 42.1 °F 93% 29.68 in 10.0 mi ENE 5.8 mph - 0.00 in   Scattered Clouds
7:53 AM 45.0 °F 42.6 °F 42.1 °F 90% 29.67 in 10.0 mi East 4.6 mph - N/A   Overcast
8:53 AM 50.0 °F - 43.0 °F 77% 29.66 in 10.0 mi East 4.6 mph - N/A   Clear
9:53 AM 54.0 °F - 42.1 °F 64% 29.67 in 10.0 mi ESE 6.9 mph - N/A   Partly Cloudy
10:53 AM 50.0 °F - 44.1 °F 80% 29.69 in 5.0 mi South 8.1 mph 20.7 mph 0.00 in Rain Light Rain
11:53 AM 48.0 °F - 45.0 °F 89% 29.73 in 4.0 mi South 11.5 mph 24.2 mph 0.02 in Rain Light Rain
12:53 PM 46.9 °F - 45.0 °F 93% 29.75 in 2.5 mi SSW 8.1 mph - 0.06 in Rain Light Rain
1:08 PM 46.4 °F 43.5 °F 44.6 °F 93% 29.75 in 4.0 mi SSW 5.8 mph - 0.05 in Rain Light Rain
1:53 PM 50.0 °F - 46.0 °F 86% 29.77 in 10.0 mi Variable 4.6 mph - 0.06 in   Overcast
2:18 PM 50.0 °F - 42.8 °F 76% 29.77 in 10.0 mi South 15.0 mph 25.3 mph N/A   Overcast
2:53 PM 51.1 °F - 44.1 °F 77% 29.78 in 10.0 mi South 11.5 mph 19.6 mph N/A   Mostly Cloudy
3:19 PM 51.8 °F - 44.6 °F 76% 29.77 in 10.0 mi South 12.7 mph 24.2 mph N/A   Overcast
3:34 PM 51.8 °F - 44.6 °F 76% 29.78 in 10.0 mi South 8.1 mph 21.9 mph 0.00 in Rain Light Rain
3:50 PM 51.8 °F - 42.8 °F 71% 29.78 in 10.0 mi South 11.5 mph 19.6 mph 0.00 in   Scattered Clouds
3:53 PM 52.0 °F - 43.0 °F 71% 29.79 in 10.0 mi South 10.4 mph 24.2 mph 0.00 in   Scattered Clouds
4:53 PM 51.1 °F - 43.0 °F 74% 29.79 in 10.0 mi South 9.2 mph 20.7 mph 0.00 in   Mostly Cloudy
5:53 PM 51.1 °F - 41.0 °F 68% 29.80 in 10.0 mi SSW 9.2 mph - N/A   Clear
6:53 PM 50.0 °F - 41.0 °F 71% 29.80 in 10.0 mi Variable 4.6 mph - N/A   Clear
7:53 PM 48.0 °F - 41.0 °F 77% 29.81 in 10.0 mi Calm Calm - N/A   Partly Cloudy
8:53 PM 42.1 °F 40.2 °F 39.0 °F 89% 29.81 in 10.0 mi NE 3.5 mph - N/A   Clear
9:53 PM 41.0 °F 39.0 °F 39.0 °F 93% 29.82 in 10.0 mi East 3.5 mph - N/A   Clear
10:53 PM 39.9 °F - 39.0 °F 97% 29.81 in 10.0 mi Calm Calm - N/A   Clear
11:53 PM 39.9 °F - 37.9 °F 93% 29.83 in 10.0 mi Calm Calm - N/A   Clear